📊 Raw Sensor Data
Showing records 43276 to 43300 of 85,015 total
| ID | Distance (ft) | Battery V | Battery A | Int Temp (°F) | Int Humid (%) | Ext Temp (°F) | Solar V | RSSI | SNR | Time Stamp |
|---|---|---|---|---|---|---|---|---|---|---|
| 41752 | 15.6 | 3.88 | -5 | 55 | 44 | 56 | 0.00 | -72 | 7 | 05/26/2025 11:45 PM |
| 41751 | 15.6 | 3.73 | -5 | 56 | 44 | 57 | 0.00 | -72 | 7 | 05/26/2025 11:30 PM |
| 41750 | 15.6 | 3.74 | -5 | 57 | 44 | 58 | 0.00 | -72 | 8 | 05/26/2025 11:15 PM |
| 41749 | 15.6 | 3.74 | -5 | 57 | 44 | 58 | 0.00 | -73 | 8 | 05/26/2025 11:00 PM |
| 41748 | 15.6 | 3.73 | -5 | 58 | 45 | 59 | 0.00 | -73 | 8 | 05/26/2025 10:45 PM |
| 41747 | 15.6 | 3.73 | -5 | 58 | 45 | 59 | 0.00 | -72 | 8 | 05/26/2025 10:30 PM |
| 41746 | 15.6 | 3.73 | -5 | 59 | 45 | 60 | 0.10 | -68 | 9 | 05/26/2025 10:15 PM |
| 41745 | 15.6 | 3.89 | -5 | 59 | 46 | 60 | 0.00 | -69 | 8 | 05/26/2025 10:00 PM |
| 41744 | 15.6 | 3.89 | -5 | 60 | 46 | 61 | 0.00 | -69 | 8 | 05/26/2025 09:45 PM |
| 41743 | 15.6 | 3.75 | -5 | 60 | 47 | 61 | 0.00 | -70 | 8 | 05/26/2025 09:30 PM |
| 41742 | 15.6 | 3.75 | -5 | 61 | 48 | 62 | 0.00 | -70 | 8 | 05/26/2025 09:15 PM |
| 41741 | 15.6 | 3.76 | -5 | 62 | 49 | 62 | 0.00 | -69 | 8 | 05/26/2025 09:00 PM |
| 41740 | 15.6 | 3.75 | -5 | 63 | 50 | 63 | 0.00 | -70 | 8 | 05/26/2025 08:45 PM |
| 41739 | 15.6 | 3.89 | -5 | 65 | 52 | 64 | 1.30 | -70 | 8 | 05/26/2025 08:30 PM |
| 41738 | 15.6 | 3.86 | -10 | 67 | 52 | 65 | 3.60 | -71 | 7 | 05/26/2025 08:15 PM |
| 41737 | 15.7 | 3.74 | 0 | 71 | 52 | 67 | 4.50 | -70 | 8 | 05/26/2025 08:00 PM |
| 41736 | 15.7 | 3.94 | 0 | 75 | 50 | 70 | 4.50 | -69 | 8 | 05/26/2025 07:45 PM |
| 41735 | 15.7 | 3.97 | 9 | 76 | 51 | 73 | 4.50 | -68 | 8 | 05/26/2025 07:30 PM |
| 41734 | 15.7 | 3.98 | 10 | 79 | 50 | 74 | 4.60 | -69 | 8 | 05/26/2025 07:15 PM |
| 41733 | 15.7 | 3.88 | 0 | 80 | 51 | 75 | 5.10 | -69 | 8 | 05/26/2025 07:00 PM |
| 41732 | 15.7 | 3.97 | 33 | 82 | 51 | 76 | 4.50 | -70 | 8 | 05/26/2025 06:45 PM |
| 41731 | 15.7 | 3.88 | 0 | 85 | 51 | 76 | 5.10 | -70 | 7 | 05/26/2025 06:30 PM |
| 41730 | 15.8 | 4.10 | 0 | 88 | 49 | 80 | 5.10 | -69 | 7 | 05/26/2025 06:15 PM |
| 41729 | 15.8 | 3.88 | 0 | 89 | 49 | 81 | 5.10 | -72 | 7 | 05/26/2025 06:00 PM |
| 41728 | 15.8 | 3.88 | 0 | 90 | 48 | 82 | 5.10 | -70 | 8 | 05/26/2025 05:45 PM |